Starlink 36088

operational
NORAD ID: 66941 Int'l Des: 2025-286 Owner: SPXS Country: US Constellation: starlink
LEOCIRCULAR

关于 Starlink 36088

正在加载描述...

实时位置

正在加载3D地球...

即将过境

高度历史

Altitude vs Time

uPlot chart will show altitude changes over time

两行轨道根数

1 66941U 25286S 25347.58336806 -.01263255 48924-3 -29293-2 0 9992
2 66941 53.1568 46.4071 0000918 60.4178 239.6683 15.96501922 2124
Epoch: Dec 13, 2025 • Age: 16 hours

当前状态

高度 290.1 km
速度 7.73 km/s
星下点 -0.85°S, 49.88°E
发射日期 Dec 7, 2025
运行时间 6 days
类型 internet

技术详情

分类 Payload
质量 575.00 kg
干质量 530.00 kg
总质量 575.00 kg
长度 0.30 m
直径 4.10 m
跨度 29.00 m
形状 Box + pan
制造商 SPXS
平台类型 Starlink V2MO
阶段状态 In Orbit
所有者/国家 SPXS/US

大型星座

Loading constellations...